Location: Doverdale
(52.2833°N, 2.2000°W)
Time: 03:16:32
(UTC+00:00)

USA 306 - Pass Details

Date: 29 October 2020
Orbit: 569 x 577 km, 54.0° (Epoch: 22 November)

Event Time Altitude Azimuth Distance (km) Brightness Sun altitude
Rises 17:53:56 0° 289° (WNW) 2,789 7.6 -11.1°
Reaches altitude 10° 17:56:12 10° 287° (WNW) 1,887 6.7 -11.4°
Maximum altitude 18:00:27 65° 206° (SSW) 635 3.2 -12.1°
Enters shadow 18:04:26 12° 125° (SE) 1,778 5.0 -12.7°
